Погода в Харелбеке

Бельгия     50°51′23″N   3°18′36″E
темп.,
°C
ветер,
м/с
пор.,
м/с
влажн.,
%
обл.,
%
осадки,
мм/ч
давл.,
гПа
погр.,
м
27 февраля, сб
сб2701:00+5с23790 0.0 1039170
04:00+5с23830 0.0 1039141
07:00+4ссв23840 0.0 1040155
10:00+6св23720 0.0 1040298
13:00+10св35560 0.0 1040891
16:00+11св45510 0.0 1039952
19:00+8св37630 0.0 1038428
22:00+6св47720 0.0 1039274
28 февраля, вс
вс2801:00+6св37757 0.0 1039260
04:00+5св367911 0.0 1038215
07:00+4св36825 0.0 1038196
10:00+6св36750 0.0 1036294
13:00+11всв47580 0.0 1036681
16:00+12св57520 0.0 1034776
19:00+9св410650 0.0 1034573
22:00+7всв410710 0.0 1034417
1 марта, пн
пн101:00+6всв410790 0.0 1034312
04:00+5всв38840 0.0 1033271
07:00+5всв49870 0.0 1033282
10:00+7всв48790 0.0 1033367
13:00+11всв58580 0.0 1032699
16:00+13всв58530 0.0 1030822
19:00+10всв49630 0.0 1030502
22:00+8всв410660 0.0 1030388
2 марта, вт
вт201:00+6в35760 0.0 1030176
04:00+5в23820 0.0 1029111
07:00+5вюв12820 0.0 102961
10:00+7ююв13700 0.0 1029237
13:00+12ююв23600 0.0 1029520
16:00+14ююз13520 0.0 1028672
19:00+11всв11634 0.0 102822
22:00+9юв12770 0.0 102927
3 марта, ср
ср301:00+9ююв228340 0.0 102944
04:00+8ююв2385100 0.0 102880
07:00+8ю228098 0.0 102841
10:00+10ююв2472100 0.2 1029215
13:00+12ююз2365100 0.2 1028410
16:00+13з126597 0.8 1028649
19:00+11сз358098 1.6 1027254
22:00+9сз248666 0.1 1028165